Location: Muenchen
(48.1800°N, 11.5800°E)
Time: 23:47:43
(UTC+02:00)

ISS - Visible Passes

Search period start: 31 May 2016 00:00
Search period end: 10 June 2016 00:00
Orbit: 402 x 404 km, 51.6° (Epoch: 31 May)

Date Brightness Start Highest point End Pass type
(mag) Time Alt. Az. Time Alt. Az. Time Alt. Az.
31 May -2.1 00:14:34 10° WNW 00:17:43 43° N 00:20:52 10° ENE visible
31 May -3.3 01:51:08 10° WNW 01:54:25 78° NNE 01:56:22 22° ESE visible
31 May -1.3 03:27:56 10° W 03:28:45 15° W 03:28:45 15° W visible
31 May -3.4 21:44:56 10° WSW 21:48:12 78° SSE 21:51:29 10° ENE visible
31 May -2.2 23:21:39 10° W 23:24:50 45° N 23:27:59 10° ENE visible
01 Jun -2.8 00:58:21 10° WNW 01:01:35 58° NNE 01:03:26 22° E visible
01 Jun -1.4 02:34:54 10° WNW 02:35:58 18° W 02:35:58 18° W visible
01 Jun -2.4 22:28:43 10° W 22:31:56 51° NNW 22:35:09 10° ENE visible
02 Jun -2.3 00:05:31 10° WNW 00:08:43 47° N 00:11:37 12° E visible
02 Jun -2.4 01:42:01 10° WNW 01:44:10 36° W 01:44:10 36° W visible
02 Jun -2.1 23:12:39 10° WNW 23:15:48 43° N 23:18:57 10° ENE visible
03 Jun -3.4 00:49:11 10° WNW 00:52:28 86° NNE 00:52:41 77° E visible
03 Jun -2.1 22:19:42 10° WNW 22:22:52 44° N 22:26:02 10° ENE visible
03 Jun -2.9 23:56:22 10° WNW 23:59:37 62° NNE 00:01:19 25° E visible
04 Jun -1.1 01:32:57 10° W 01:33:53 16° W 01:33:53 16° W visible
04 Jun -2.5 23:03:30 10° WNW 23:06:43 49° N 23:09:54 10° E visible
05 Jun -2.8 00:40:01 10° WNW 00:42:36 45° WSW 00:42:36 45° WSW visible
05 Jun -2.2 22:10:36 10° WNW 22:13:46 44° N 22:16:55 10° ENE visible
05 Jun -3.5 23:47:07 10° WNW 23:50:24 85° SSW 23:51:21 43° ESE visible
06 Jun -3.1 22:54:15 10° WNW 22:57:31 68° NNE 23:00:09 15° E visible
07 Jun -1.7 00:30:55 10° W 00:32:44 23° WSW 00:32:44 23° WSW visible
07 Jun -2.6 22:01:22 10° WNW 22:04:35 52° NNE 22:07:48 10° E visible
07 Jun -3.0 23:37:52 10° WNW 23:41:02 47° SSW 23:41:34 42° S visible
08 Jun -3.4 22:44:56 10° WNW 22:48:13 75° SSW 22:50:25 19° ESE visible
09 Jun -0.9 00:22:14 10° W 00:23:00 13° WSW 00:23:00 13° WSW visible
09 Jun -3.2 21:52:02 10° WNW 21:55:19 75° NNE 21:58:34 10° ESE visible
09 Jun -2.0 23:28:47 10° W 23:31:31 25° SW 23:31:54 24° SSW visible
